Regional Weather Roundup
Issued by NWS

Home | Current Version | Previous Version | Graphics & Text | Print | Product List | Glossary On
Versions: 1 2 3 4 5 6 7 8 9 10 11 12 13 14 15 16 17 18 19 20 21 22 23 24 25 26 27 28 29 30 31 32 33 34 35 36 37 38 39 40 41 42 43 44 45 46 47 48 49 50
000
ASUS45 KABQ 170601
RWRNM
NEW MEXICO REGIONAL WEATHER ROUNDUP
NATIONAL WEATHER SERVICE ALBUQUERQUE NM
1100 PM MST MON JAN 16 2017

NOTE: "FAIR" MEANS FEW OR NO CLOUDS BELOW 12,000 FEET AGL WITH NO
       SIGNIFICANT WEATHER OR OBSTRUCTIONS TO VISION.

      THIS PRODUCT IS RELEASED AS TWO VERSIONS.  ONE VERSION NEAR
      THE TOP OF THE HOUR CONTAINING PRELIMINARY DATA FROM ALBUQUERQUE
      AND OTHER STATIONS.  A FINAL VERSION WITH ADDITIONAL DATA IS
      ISSUED ABOUT 10 MINUTES AFTER THE HOUR.

NMZ501-503-504-510>518-170700-
NORTHWEST PLATEAU/NORTHCENTRAL MOUNTAINS

CITY           SKY/WX    TMP DP  RH WIND       PRES   REMARKS
FARMINGTON     MIX PCPN  33  32  96 E3        30.10R
6HR MIN TEMP:  32; 6HR MAX TEMP:  34; 6HR PCP:  0.05;

LOS ALAMOS     CLOUDY    32  32 100 S5        30.12S WCI  27
SANTA FE       CLOUDY    34  33  96 SE12      30.11S WCI  25
6HR MIN TEMP:  34; 6HR MAX TEMP:  41; 6HR PCP:  0.04;

TAOS           CLOUDY    32  25  74 S5        30.11R WCI  27
ANGEL FIRE     FLURRIES  26  24  91 NE7       30.11S WCI  19

$$
NMZ402-403-502-505>509-170700-
WESTCENTRAL MOUNTAINS/SOUTHWEST MOUNTAINS

CITY           SKY/WX    TMP DP  RH WIND       PRES   REMARKS
GALLUP         LGT SNOW  32  30  93 N5        30.09S FOG     WCI  27
6HR MIN TEMP:  32; 6HR MAX TEMP:  36; 6HR PCP:  0.18;

GRANTS         CLOUDY    33  32  96 CALM      30.11R
SILVER CITY    FAIR      35  32  91 N9        30.07S WCI  27

$$
NMZ407-409-411-412-170700-
SOUTHERN DESERTS

CITY           SKY/WX    TMP DP  RH WIND       PRES   REMARKS
DEMING         FAIR      38  36  92 CALM      30.06R
6HR MIN TEMP:  38; 6HR MAX TEMP:  51;

LAS CRUCES     FAIR      40  36  87 E3        30.08R
HOLLOMAN AFB   FAIR      40  37  91 E6        30.11R
ALAMOGORDO     FAIR      39  32  75 E7        30.08R WCI  34
T OR C         CLOUDY    41  38  89 NW6       30.07S
6HR MIN TEMP:  41; 6HR MAX TEMP:  49; 6HR PCP:  0.13;


$$
NMZ519>523-170700-
CENTRAL VALLEYS/CENTRAL HIGHLANDS

CITY           SKY/WX    TMP DP  RH WIND       PRES   REMARKS
ALBUQUERQUE    CLOUDY    39  36  89 E12       30.11R WCI  32
6HR MIN TEMP:  39; 6HR MAX TEMP:  47; 6HR PCP:  0.05;

DOUBLE EAGLE   CLOUDY    38  37  98 SE12      30.12R WCI  30
MORIARTY ARPT  CLOUDY    34  32  92 W3        30.14R
6HR MIN TEMP:  33; 6HR MAX TEMP:  38; 6HR PCP:  0.02;

CLINES CORNERS NOT AVBL
BELEN          CLOUDY    41  38  91 E5        30.10R
6HR MIN TEMP:  41; 6HR MAX TEMP:  43;

SOCORRO        CLOUDY    42  37  83 CALM      30.09R
6HR MIN TEMP:  41; 6HR MAX TEMP:  46;


$$
NMZ524>526-539-540-170700-
SOUTHCENTRAL MOUNTAINS

CITY           SKY/WX    TMP DP  RH WIND       PRES   REMARKS
RUIDOSO        NOT AVBL

$$
NMZ527>531-170700-
NORTHEAST HIGHLANDS/NORTHEAST PLAINS

CITY           SKY/WX    TMP DP  RH WIND       PRES   REMARKS
LAS VEGAS      CLOUDY    30  27  88 SE6       30.14R WCI  24
6HR MIN TEMP:  29; 6HR MAX TEMP:  33;

RATON          CLOUDY    31  25  78 CALM      30.13R
6HR MIN TEMP:  31; 6HR MAX TEMP:  33; 6HR PCP: TRACE;

CLAYTON        CLOUDY    33  33 100 NW10      30.14S WCI  25
6HR MIN TEMP:  33; 6HR MAX TEMP:  34; 6HR PCP: TRACE;


$$
NMZ532>537-170700-
EASTCENTRAL PLAINS

CITY           SKY/WX    TMP DP  RH WIND       PRES   REMARKS
TUCUMCARI      CLOUDY    39  32  76 E6        30.15S WCI  35
6HR MIN TEMP:  39; 6HR MAX TEMP:  46;

CANNON AFB     CLOUDY    34  34 100 N14       30.13R WCI  24
6HR MIN TEMP:  33; 6HR MAX TEMP:  44;

CLOVIS AIRPORT FAIR      34  27  75 N13       30.13S WCI  25

$$
NMZ028-029-538-170700-
SOUTHEAST PLAINS

CITY           SKY/WX    TMP DP  RH WIND       PRES   REMARKS
ROSWELL        FAIR      43  35  73 N7        30.13R
6HR MIN TEMP:  43; 6HR MAX TEMP:  55;

ARTESIA        FAIR      45  45 100 SE12      30.10R
CARLSBAD       CLOUDY    46  41  82 NE10      30.08R
6HR MIN TEMP:  42; 6HR MAX TEMP:  59;



$$



USA.gov is the U.S. government's official web portal to all federal, state and local government web resources and services.